User: anonymous   Login
Location: Montauk Point State Park
(41.0718°N, 71.8593°W)
Time: 02:14:47
(UTC-04:00)
Language:

Cosmos 1844 - Orbit

View from above orbital plane
View from above orbital plane
View from above satellite
View from above satellite

Ground track
Ground track

The orbit data is extracted from the following two-line orbital elements,

1 17973U 87041A   17081.97054253 -.00000094 +00000-0 -23505-4 0  9993
2 17973 070.8979 095.2732 0033752 256.5411 103.1948 14.14050152540751
Epoch (UTC): 22 March 2017 23:17:34
Eccentricity: 0.0033752
inclination: 70.8979°
perigee height: 821 km
apogee height: 870 km
right ascension of ascending node: 95.2732°
argument of perigee: 256.5411°
revolutions per day: 14.14050152
mean anomaly at epoch: 103.1948°
orbit number at epoch: 54075

The dashed part of the orbit path shows where the satellite is in the earth's shadow,  

DLR